Date String (YYYY-MM-DD hh:mm:ss) UTC,Instrument flags,absolute air pressure of the measurement (hPa),sample flow rate (lpm),inlet stack bypass flow (lpm),air temperature of the measurement (°C),ambient temperature measured by the external sensor (°C),aerosol sample conditioner tube jacket temperature (°C),OPC LED temperature (°C),internal box temperature (°C),relative humidity of the measurement (%),span deviation,mass concentration of particles derived from Lorenz-Mie calculation of OPC scattering (μg/m³),mass concentration of particles derived from Lorenz-Mie calculation of OPC scattering (μg/m³),mass concentration of particles derived from Lorenz-Mie calculation of OPC scattering (μg/m³)
DateTimeUTC,F1_M11,P_M11,Q1_M11,Q2_M11,T1_M11,T2_M11,T3_M11,T4_M11,T5_M11,U1_M11,ZSPAN_M11,X0_M11,X2_M11,X1_M11
2023-06-19 03:00:00,SystemResetWarning,0824.5,5.00,000.00,029.5,027.5,000.0,038.0,031.0,24.5,0000.0,0011.48,0004.40,0003.96
2023-06-19 03:01:00,SystemResetWarning,0824.5,5.01,000.00,029.5,027.7,000.0,038.0,031.0,23.8,0000.0,0011.57,0004.47,0004.00
2023-06-19 03:02:00,SystemResetWarning,0824.5,5.01,000.00,029.5,027.9,000.0,038.0,031.1,24.0,0000.0,0011.65,0004.52,0004.04
2023-06-19 03:03:00,SystemResetWarning,0824.6,5.00,000.00,029.6,028.0,000.0,038.0,031.2,23.8,0000.0,0011.07,0004.54,0004.05
2023-06-19 03:04:00,SystemResetWarning,0824.6,5.00,000.00,029.6,028.0,000.0,038.0,031.2,23.4,0000.0,0010.93,0004.56,0004.07
2023-06-19 03:05:00,SystemResetWarning,0824.6,4.98,000.00,029.6,026.3,000.0,038.0,031.2,23.2,0000.0,0010.57,0004.61,0004.11
2023-06-19 03:06:00,SystemResetWarning,0824.5,5.02,000.00,029.6,025.0,000.0,037.9,031.1,23.2,0000.0,0009.69,0004.60,0004.12
2023-06-19 03:07:00,SystemResetWarning,0824.5,5.01,000.00,029.5,025.1,000.0,037.9,030.9,23.6,0000.0,0009.27,0004.57,0004.11
2023-06-19 03:08:00,SystemResetWarning,0824.5,5.00,000.00,029.4,025.4,000.0,037.9,030.7,24.1,0000.0,0008.60,0004.58,0004.12
2023-06-19 03:09:00,SystemResetWarning,0824.5,5.00,000.00,029.4,025.9,000.0,037.9,030.7,24.3,0000.0,0008.39,0004.59,0004.11
2023-06-19 03:10:00,SystemResetWarning,0824.6,4.99,000.00,029.4,026.3,000.0,037.9,030.8,24.6,0000.0,0008.61,0004.61,0004.10
2023-06-19 03:11:00,SystemResetWarning,0824.6,4.99,000.00,029.4,026.7,000.0,037.9,030.8,24.7,0000.0,0008.65,0004.64,0004.10
2023-06-19 03:12:00,SystemResetWarning,0824.6,5.01,000.00,029.4,027.1,000.0,037.9,030.9,24.4,0000.0,0008.71,0004.65,0004.10
2023-06-19 03:13:00,SystemResetWarning,0824.6,5.01,000.00,029.4,027.3,000.0,037.9,030.9,24.6,0000.0,0008.58,0004.61,0004.09
2023-06-19 03:14:00,SystemResetWarning,0824.7,4.99,000.00,029.4,027.5,000.0,038.0,031.0,25.0,0000.0,0008.40,0004.58,0004.10
2023-06-19 03:15:00,SystemResetWarning,0824.7,4.99,000.00,029.5,027.7,000.0,038.0,031.0,25.3,0000.0,0008.23,0004.58,0004.12
2023-06-19 03:16:00,SystemResetWarning,0824.7,5.01,000.00,029.5,027.9,000.0,038.0,031.1,25.3,0000.0,0008.20,0004.59,0004.12
2023-06-19 03:17:00,SystemResetWarning,0824.7,5.01,000.00,029.5,028.0,000.0,038.0,031.1,25.1,0000.0,0008.21,0004.61,0004.12
2023-06-19 03:18:00,SystemResetWarning,0824.7,4.99,000.00,029.6,027.9,000.0,038.0,031.2,24.8,0000.0,0008.25,0004.64,0004.14
2023-06-19 03:19:00,SystemResetWarning,0824.7,4.99,000.00,029.6,025.9,000.0,038.0,031.2,24.9,0000.0,0008.28,0004.64,0004.14
2023-06-19 03:20:00,SystemResetWarning,0824.7,5.01,000.00,029.6,024.9,000.0,037.9,031.2,24.9,0000.0,0008.26,0004.64,0004.15
2023-06-19 03:21:00,SystemResetWarning,0824.7,5.01,000.00,029.5,025.0,000.0,037.9,030.9,23.8,0000.0,0008.14,0004.62,0004.16
2023-06-19 03:22:00,SystemResetWarning,0824.7,4.99,000.00,029.4,025.4,000.0,037.9,030.7,24.4,0000.0,0008.23,0004.64,0004.16
2023-06-19 03:23:00,SystemResetWarning,0824.7,5.00,000.00,029.4,025.9,000.0,037.9,030.7,24.8,0000.0,0008.17,0004.62,0004.16
2023-06-19 03:24:00,SystemResetWarning,0824.7,5.00,000.00,029.3,026.3,000.0,037.9,030.8,25.3,0000.0,0008.28,0004.64,0004.17
2023-06-19 03:25:00,SystemResetWarning,0824.7,5.00,000.00,029.4,026.7,000.0,037.9,030.8,25.4,0000.0,0008.48,0004.69,0004.18
2023-06-19 03:26:00,SystemResetWarning,0824.6,4.99,000.00,029.4,027.0,000.0,037.9,030.8,25.5,0000.0,0008.53,0004.71,0004.19
2023-06-19 03:27:00,SystemResetWarning,0824.7,4.99,000.00,029.4,027.2,000.0,037.9,030.9,25.6,0000.0,0008.58,0004.72,0004.19
2023-06-19 03:28:00,SystemResetWarning,0824.7,5.01,000.00,029.4,027.5,000.0,037.9,031.0,25.7,0000.0,0008.53,0004.72,0004.20
2023-06-19 03:29:00,SystemResetWarning,0824.7,5.01,000.00,029.4,027.7,000.0,037.9,031.0,25.6,0000.0,0008.66,0004.75,0004.22
2023-06-19 03:30:00,SystemResetWarning,0824.8,4.98,000.00,029.5,027.8,000.0,038.0,031.0,25.7,0000.0,0008.70,0004.77,0004.23
2023-06-19 03:31:00,SystemResetWarning,0824.7,5.00,000.00,029.5,027.9,000.0,038.0,031.1,25.6,0000.0,0008.26,0004.76,0004.22
2023-06-19 03:32:00,SystemResetWarning,0824.7,5.02,000.00,029.5,028.1,000.0,038.0,031.1,25.7,0000.0,0008.15,0004.77,0004.21
2023-06-19 03:33:00,SystemResetWarning,0824.7,4.99,000.00,029.6,028.2,000.0,038.0,031.2,25.7,0000.0,0008.16,0004.78,0004.22
2023-06-19 03:34:00,SystemResetWarning,0824.8,4.98,000.00,029.6,027.1,000.0,038.0,031.2,25.4,0000.0,0008.30,0004.82,0004.22
2023-06-19 03:35:00,SystemResetWarning,0824.7,5.01,000.00,029.6,025.2,000.0,037.9,031.1,25.3,0000.0,0008.38,0004.83,0004.21
2023-06-19 03:36:00,SystemResetWarning,0824.8,5.00,000.00,029.5,024.9,000.0,037.9,031.0,25.3,0000.0,0008.22,0004.80,0004.19
2023-06-19 03:37:00,SystemResetWarning,0824.8,5.01,000.00,029.4,025.2,000.0,037.9,030.7,25.4,0000.0,0008.12,0004.76,0004.17
2023-06-19 03:38:00,SystemResetWarning,0824.8,5.01,000.00,029.3,025.6,000.0,037.9,030.7,25.5,0000.0,0008.13,0004.71,0004.15
2023-06-19 03:39:00,SystemResetWarning,0824.8,4.99,000.00,029.3,026.0,000.0,037.9,030.7,25.6,0000.0,0009.07,0004.68,0004.11
2023-06-19 03:40:00,SystemResetWarning,0824.8,5.00,000.00,029.3,026.4,000.0,037.9,030.7,25.7,0000.0,0008.96,0004.63,0004.07
2023-06-19 03:41:00,SystemResetWarning,0824.8,5.00,000.00,029.3,026.8,000.0,037.9,030.8,25.9,0000.0,0008.91,0004.59,0004.04
2023-06-19 03:42:00,SystemResetWarning,0824.8,4.98,000.00,029.3,027.1,000.0,037.9,030.8,25.9,0000.0,0008.94,0004.55,0004.01
2023-06-19 03:43:00,SystemResetWarning,0824.8,4.99,000.00,029.4,027.3,000.0,037.9,030.9,25.8,0000.0,0008.91,0004.49,0003.97
2023-06-19 03:44:00,SystemResetWarning,0824.9,5.00,000.00,029.4,027.5,000.0,037.9,030.9,25.9,0000.0,0008.80,0004.43,0003.93
2023-06-19 03:45:00,SystemResetWarning,0824.9,5.01,000.00,029.4,027.7,000.0,037.9,031.0,25.9,0000.0,0008.58,0004.34,0003.89
2023-06-19 03:46:00,SystemResetWarning,0824.9,5.01,000.00,029.5,027.9,000.0,038.0,031.0,25.8,0000.0,0008.47,0004.29,0003.86
2023-06-19 03:47:00,SystemResetWarning,0824.9,4.99,000.00,029.5,028.0,000.0,038.0,031.1,25.8,0000.0,0008.48,0004.26,0003.84
2023-06-19 03:48:00,SystemResetWarning,0824.9,4.99,000.00,029.5,028.1,000.0,038.0,031.1,25.8,0000.0,0008.50,0004.26,0003.84
2023-06-19 03:49:00,SystemResetWarning,0824.9,5.01,000.00,029.6,028.2,000.0,038.0,031.2,25.8,0000.0,0008.58,0004.26,0003.82
2023-06-19 03:50:00,SystemResetWarning,0824.9,5.02,000.00,029.6,028.2,000.0,038.0,031.2,25.9,0000.0,0007.57,0004.25,0003.81
2023-06-19 03:51:00,SystemResetWarning,0824.9,4.98,000.00,029.6,027.2,000.0,038.0,031.3,25.7,0000.0,0007.59,0004.25,0003.79
2023-06-19 03:52:00,SystemResetWarning,0824.9,5.01,000.00,029.6,025.2,000.0,038.0,031.2,25.8,0000.0,0007.62,0004.21,0003.77
2023-06-19 03:53:00,SystemResetWarning,0824.9,5.00,000.00,029.6,024.8,000.0,037.9,031.1,25.9,0000.0,0007.69,0004.18,0003.76
2023-06-19 03:54:00,SystemResetWarning,0824.9,4.99,000.00,029.5,025.1,000.0,037.9,030.8,26.1,0000.0,0008.87,0004.19,0003.75
2023-06-19 03:55:00,SystemResetWarning,0824.9,5.00,000.00,029.4,025.6,000.0,037.9,030.8,26.2,0000.0,0008.95,0004.18,0003.76
2023-06-19 03:56:00,SystemResetWarning,0824.9,5.01,000.00,029.4,026.0,000.0,037.9,030.8,26.4,0000.0,0009.08,0004.17,0003.75
2023-06-19 03:57:00,SystemResetWarning,0824.9,5.02,000.00,029.4,026.4,000.0,037.9,030.8,26.5,0000.0,0009.13,0004.16,0003.75
2023-06-19 03:58:00,SystemResetWarning,0824.9,4.99,000.00,029.4,026.8,000.0,037.9,030.9,26.5,0000.0,0009.02,0004.14,0003.74
2023-06-19 03:59:00,SystemResetWarning,0824.9,4.99,000.00,029.4,027.1,000.0,038.0,030.9,26.7,0000.0,0009.05,0004.14,0003.72
